Weather History for Cedar City, UT

Change the Weather History Date:

Monday, August 26, 2013

  Actual Average Record
Temperature  
Mean Temperature 63 °F 69 °F  
Max Temperature 70 °F 86 °F 94 °F (1974)
Min Temperature 56 °F 53 °F 44 °F (1992)
Degree Days  
Heating Degree Days 2 0  
Month to date heating degree days 4 0  
Since 1 June heating degree days 15 79  
Since 1 July heating degree days 4 3  
Cooling Degree Days 0 5  
Month to date cooling degree days 155 175  
Year to date cooling degree days 609 528  
Since 1 June cooling degree days 607 520  
Growing Degree Days 12 (Base 50)    
Moisture  
Dew Point 57 °F    
Average Humidity 80    
Maximum Humidity 100    
Minimum Humidity 60    
Precipitation  
Precipitation 0.11 in 0.03 in 0.91 in (1953)
Month to date precipitation 1.72 0.98  
Year to date precipitation 11.04 7.39  
Sea Level Pressure  
Sea Level Pressure 30.08 in    
Wind  
Wind Speed 5 mph (NNE)    
Max Wind Speed 13 mph    
Max Gust Speed 20 mph    
Visibility 10 miles    
Events Rain , Thunderstorm    
T = Trace of Precipitation, MM = Missing Value Source: NWS Daily Summary

Daily Weather History Graph

Daily Weather History Graph

Search for Another Location

Airport:

Trip Planner

Search our weather history database for the weather conditions in past years. The results will help you decide how hot, cold, wet, or windy it might be!

Date:

Astronomy

Aug. 26, 2013 Rise Set
Actual Time 6:57 AM MDT 8:09 PM MDT
Civil Twilight 6:30 AM MDT 8:36 PM MDT
Nautical Twilight 5:58 AM MDT 9:09 PM MDT
Astronomical Twilight 5:24 AM MDT 9:42 PM MDT
Moon 11:31 PM MDT (8/26) 12:55 PM MDT (8/26)
Length of Visible Light 14h 06m
Length of Day
13h 12m
Waning Gibbous, 66% of the Moon is Illuminated
Aug 26
Waning Gibbous
Aug 28
Last Quarter
Sep 5
New
Sep 12
First Quarter
Sep 19
Full

Hourly Weather History & Observations

Time (MDT) Temp. Dew Point Humidity Pressure Visibility Wind Dir Wind Speed Gust Speed Precip Events Conditions
12:53 AM 63.0 °F 48.9 °F 60% 30.01 in 10.0 mi SE 13.8 mph 24.2 mph N/A   Overcast
1:53 AM 60.1 °F 52.0 °F 75% 30.04 in 10.0 mi NW 8.1 mph - 0.00 in   Overcast
2:53 AM 60.1 °F 52.0 °F 75% 30.01 in 10.0 mi WSW 4.6 mph - N/A   Overcast
3:53 AM 57.9 °F 53.1 °F 84% 30.04 in 10.0 mi North 3.5 mph - 0.00 in Rain Light Rain
4:53 AM 57.0 °F 54.0 °F 89% 30.04 in 10.0 mi NE 5.8 mph - 0.00 in Rain Light Rain
5:53 AM 55.9 °F 54.0 °F 93% 30.08 in 10.0 mi NW 4.6 mph - 0.00 in   Overcast
6:53 AM 55.9 °F 54.0 °F 93% 30.10 in 10.0 mi NE 5.8 mph - 0.01 in Rain Light Rain
7:53 AM 57.0 °F 55.0 °F 93% 30.12 in 6.0 mi NE 4.6 mph - 0.04 in Rain Light Rain
8:53 AM 57.0 °F 55.0 °F 93% 30.13 in 10.0 mi NNE 4.6 mph - 0.05 in Rain Light Rain
9:53 AM 59.0 °F 55.9 °F 90% 30.11 in 10.0 mi NNE 4.6 mph - 0.00 in   Overcast
10:53 AM 62.1 °F 57.9 °F 86% 30.11 in 10.0 mi ENE 4.6 mph - 0.01 in   Overcast
11:53 AM 64.0 °F 59.0 °F 84% 30.10 in 10.0 mi SSW 8.1 mph - N/A   Mostly Cloudy
12:53 PM 68.0 °F 57.9 °F 70% 30.06 in 10.0 mi Variable 4.6 mph - N/A   Mostly Cloudy
1:02 PM 69.8 °F 59.0 °F 68% 30.25 in 10.0 mi WSW 6.9 mph - N/A   Overcast
1:53 PM 69.1 °F 59.0 °F 70% 30.06 in 10.0 mi SSW 8.1 mph - 0.00 in Rain Light Rain
2:53 PM 66.0 °F 60.1 °F 81% 30.07 in 10.0 mi WNW 8.1 mph - 0.00 in   Overcast
3:53 PM 69.1 °F 57.9 °F 68% 30.05 in 10.0 mi Calm Calm - N/A   Mostly Cloudy
4:10 PM 69.8 °F 59.0 °F 68% 30.22 in 10.0 mi North 9.2 mph - N/A   Mostly Cloudy
4:22 PM 68.0 °F 59.0 °F 73% 30.22 in 10.0 mi North 8.1 mph - N/A   Mostly Cloudy
4:53 PM 66.9 °F 59.0 °F 76% 30.05 in 10.0 mi North 8.1 mph - N/A   Mostly Cloudy
5:53 PM 69.1 °F 59.0 °F 70% 30.03 in 10.0 mi NE 3.5 mph - N/A   Scattered Clouds
6:53 PM 69.1 °F 59.0 °F 70% 30.02 in 10.0 mi NNW 6.9 mph - N/A   Partly Cloudy
7:39 PM 68.0 °F 60.8 °F 78% 30.21 in 10.0 mi Calm Calm - 0.00 in Thunderstorm Overcast
7:53 PM 68.0 °F 59.0 °F 73% 30.03 in 10.0 mi ENE 3.5 mph - 0.00 in Thunderstorm Overcast
8:00 PM 66.2 °F 59.0 °F 78% 30.20 in 10.0 mi ENE 5.8 mph - N/A   Overcast
8:53 PM 63.0 °F 55.9 °F 78% 30.03 in 10.0 mi ESE 12.7 mph - 0.00 in   Scattered Clouds
9:53 PM 64.0 °F 55.9 °F 75% 30.03 in 10.0 mi Calm Calm - N/A   Partly Cloudy
10:53 PM 63.0 °F 57.9 °F 84% 30.03 in 10.0 mi Calm Calm - N/A   Clear
11:53 PM 64.0 °F 57.0 °F 78% 30.01 in 10.0 mi SSW 3.5 mph - N/A   Scattered Clouds